C/2016 E1 ( PanSTARRS )

Japanese version
Home page
Updated on April 13, 2018

---------------------------------------------------------------------

* Profile

Discovery Date March 3, 2016
Magnitude 21.1 mag
Discoverer Pan-STARRS 1 telescope (Haleakala)

* Pictures

* Orbital Elements

Epoch 2017 June 16.0 TT = JDT 2457920.5
T 2017 June 1.43393 TT                                  MPCW
q   8.1767629            (2000.0)            P               Q
z  -0.0003823      Peri.   47.30986     -0.79986448     +0.08024050
 +/-0.0000010      Node   233.03594     -0.44393143     +0.58783854
e   1.0031257      Incl.  131.89161     +0.40390803     +0.80498901
From 139 observations 2016 Mar. 3-2018 Mar. 13, mean residual 0".4.

* Magnitudes Graph

        m1 = 5.7 + 5 log d + 10.0 log r

---------------------------------------------------------------------

The orbital elements are published on M.P.E.C. 2018-F152.
The magnitudes graphs are made with Comet for Windows.

---------------------------------------------------------------------

Copyright(C) Seiichi Yoshida (comet@aerith.net). All rights reserved.